This demonstration page uses our WeatherBlox Daily Observations layout. Learn more.

Left ArrowRight Arrow

39.51506, -84.39828

Hourly Observations for June 23, 2020

Temp ( °F °C ) Dew Point ( °F °C ) Humidity (%) Winds ( mph kmh ) Pressure ( in mb ) Visibility ( mi km ) Precip ( " mm )
12:15 am 00:15 Cloudy 76 24.5 69 20.8 80 80 WSW 14 22 29.79 1009 10 16.0934 0 0
12:35 am 00:35 Cloudy with Heavy Rain 71 21.6 69 20.8 95 95 SW 9 15 29.81 1010 2.5 4.02335 0.19 4.826
12:55 am 00:55 Cloudy with Rain 70 21.3 70 20.9 98 98 SSW 6 9 29.8 1009 5 8.0467 0.33 8.382
1:15 am 01:15 Mostly Cloudy 71 21.4 70 21 98 98 S 5 7 29.79 1009 10 16.0934 0 0
1:35 am 01:35 Cloudy with Light Rain 71 21.4 70 20.9 97 97 S 3 6 29.78 1009 10 16.0934 0.01 0.254
1:55 am 01:55 Cloudy with Rain 71 21.4 70 20.9 97 97 S 7 11 29.78 1009 10 16.0934 0.02 0.508
2:15 am 02:15 Mostly Cloudy with Light Rain 70 21.3 69 20.8 97 97 S 6 9 29.76 1008 10 16.0934 0.02 0.508
2:35 am 02:35 Mostly Cloudy with Light Rain 70 21.3 69 20.7 96 96 S 6 9 29.76 1008 10 16.0934 0.02 0.508
2:55 am 02:55 Cloudy with Light Rain 70 21.2 69 20.7 97 97 Calm 29.75 1008 7 11.26538 0.04 1.016
3:15 am 03:15 Cloudy with Light Rain 70 21.1 69 20.7 98 98 SSW 9 15 29.74 1007 7 11.26538 0.01 0.254
3:35 am 03:35 Cloudy with Light Rain 70 21.1 69 20.7 98 98 S 8 13 29.73 1007 7 11.26538 0.03 0.762
3:55 am 03:55 Cloudy 70 21.1 69 20.7 98 98 S 7 11 29.71 1006 10 16.0934 0.03 0.762
4:15 am 04:15 Cloudy 70 21.2 69 20.6 96 96 S 8 13 29.7 1006 10 16.0934 0 0
4:35 am 04:35 Cloudy 70 21.2 69 20.5 96 96 S 10 17 29.69 1005 10 16.0934 0 0
4:55 am 04:55 Cloudy 70 21.3 69 20.6 96 96 S 7 11 29.69 1005 10 16.0934 0 0
5:15 am 05:15 Cloudy 70 21.2 69 20.7 97 97 SSW 8 13 29.69 1005 10 16.0934 0 0
5:35 am 05:35 Cloudy 70 21.3 70 20.9 98 98 SSW 8 13 29.68 1005 10 16.0934 0 0
5:55 am 05:55 Cloudy 71 21.5 70 21 97 97 SSW 9 15 29.69 1005 10 16.0934 0 0
6:15 am 06:15 Cloudy 71 21.6 70 21 96 96 SSW 13 20 29.68 1005 10 16.0934 0 0
6:35 am 06:35 Cloudy with Light Rain 71 21.6 70 21.1 97 97 S 10 17 29.68 1005 7 11.26538 0 0
6:55 am 06:55 Cloudy with Light Rain 71 21.6 70 21.2 98 98 SSW 9 15 29.68 1005 4 6.43736 0 0
7:15 am 07:15 Cloudy with Rain 71 21.6 70 21.3 98 98 SSW 12 19 29.68 1005 3.5 5.63269 0 0
7:35 am 07:35 Cloudy with Rain 71 21.5 70 21.3 99 99 W 9 15 29.68 1005 5 8.0467 0.02 0.508
7:55 am 07:55 Cloudy with Light Rain 71 21.6 70 21.3 98 98 W 7 11 29.69 1005 3.5 5.63269 0.04 1.016
8:15 am 08:15 Cloudy 71 21.8 70 21.3 97 97 WSW 7 11 29.69 1005 10 16.0934 0.01 0.254
8:35 am 08:35 Cloudy 71 21.9 69 20.5 92 92 W 9 15 29.69 1005 10 16.0934 0.02 0.508
8:55 am 08:55 Partly Cloudy with Mist and Fog 71 21.5 69 20.4 93 93 W 6 9 29.69 1005 5 8.0467 0.02 0.508
9:15 am 09:15 Mostly Cloudy 71 21.9 68 20.1 90 90 W 6 9 29.69 1005 10 16.0934 0 0
9:35 am 09:35 Partly Cloudy 73 22.8 69 20.3 86 86 W 10 17 29.7 1006 10 16.0934 0.01 0.254
9:55 am 09:55 Partly Cloudy 73 22.6 68 20.1 86 86 W 8 13 29.71 1006 10 16.0934 0.01 0.254
10:15 am 10:15 Mostly Cloudy 72 22.4 68 20 86 86 W 9 15 29.72 1006 10 16.0934 0 0
10:35 am 10:35 Mostly Cloudy 73 23 67 19.5 81 81 W 12 19 29.72 1006 10 16.0934 0.01 0.254
10:55 am 10:55 Mostly Cloudy 75 23.8 68 19.9 79 79 W 12 19 29.72 1006 10 16.0934 0.01 0.254
11:15 am 11:15 Mostly Cloudy 74 23.4 67 19.4 78 78 W 10 17 29.73 1007 10 16.0934 0 0
11:35 am 11:35 Cloudy 75 24 65 18.5 71 71 W 14 22 29.73 1007 10 16.0934 0 0
11:55 am 11:55 Cloudy 76 24.3 66 18.8 71 71 W 14 22 29.72 1007 10 16.0934 0 0
12:15 pm 12:15 Cloudy 75 23.9 65 18.6 72 72 W 13 20 29.74 1007 10 16.0934 0 0
12:35 pm 12:35 Cloudy 75 23.7 65 18.6 73 73 W 7 11 29.74 1007 10 16.0934 0 0
12:55 pm 12:55 Cloudy 75 24 66 18.9 73 73 W 15 24 29.74 1007 10 16.0934 0 0
1:15 pm 13:15 Partly Cloudy 77 24.9 67 19.4 72 72 W 9 15 29.72 1007 10 16.0934 0 0
1:35 pm 13:35 Cloudy with Rain 71 21.9 66 18.8 83 83 W 13 20 29.74 1007 10 16.0934 0 0
1:55 pm 13:55 Cloudy 71 21.8 68 20.1 90 90 W 9 15 29.74 1007 10 16.0934 0.01 0.254
2:15 pm 14:15 Cloudy 73 23 68 20.2 84 84 W 14 22 29.74 1007 10 16.0934 0 0
2:35 pm 14:35 Mostly Cloudy 76 24.6 69 20.4 78 78 W 12 19 29.73 1007 10 16.0934 0.01 0.254
2:55 pm 14:55 Partly Cloudy 77 25.2 67 19.5 71 71 WSW 16 26 29.73 1007 10 16.0934 0.01 0.254
3:15 pm 15:15 Partly Cloudy 77 24.9 64 17.7 64 64 WNW 14 22 29.73 1007 10 16.0934 0.01 0.254
3:35 pm 15:35 Mostly Cloudy 77 24.8 65 18.3 67 67 W 14 22 29.73 1007 10 16.0934 0.01 0.254
3:55 pm 15:55 Partly Cloudy 77 25 63 17.4 63 63 W 17 28 29.73 1007 10 16.0934 0.01 0.254
4:35 pm 16:35 Sunny 78 25.8 61 16.3 56 56 W 16 26 29.74 1007 10 16.0934 0.01 0.254
4:55 pm 16:55 Partly Cloudy 78 25.4 60 15.7 55 55 W 15 24 29.74 1007 10 16.0934 0.01 0.254
5:15 pm 17:15 Sunny 78 25.3 60 15.3 54 54 WNW 14 22 29.75 1008 10 16.0934 0 0
5:35 pm 17:35 Partly Cloudy 78 25.4 59 15 53 53 W 14 22 29.75 1008 10 16.0934 0 0
5:55 pm 17:55 Partly Cloudy 76 24.6 57 13.9 51 51 WNW 15 24 29.75 1008 10 16.0934 0 0
6:15 pm 18:15 Sunny 77 24.9 58 14.7 53 53 WNW 9 15 29.75 1008 10 16.0934 0 0
6:35 pm 18:35 Partly Cloudy 78 25.4 60 15.3 54 54 W 14 22 29.75 1008 10 16.0934 0 0
6:55 pm 18:55 Partly Cloudy 76 24.2 59 15 57 57 WNW 12 19 29.77 1008 10 16.0934 0 0
7:15 pm 19:15 Mostly Cloudy 76 24.7 59 15.2 56 56 WNW 10 17 29.76 1008 10 16.0934 0 0
7:35 pm 19:35 Sunny 76 24.2 58 14.2 54 54 WNW 10 17 29.77 1008 10 16.0934 0 0
7:55 pm 19:55 Sunny 75 23.7 56 13.1 52 52 W 9 15 29.78 1008 10 16.0934 0 0
8:15 pm 20:15 Sunny 74 23.2 55 12.9 52 52 W 7 11 29.79 1009 10 16.0934 0 0
8:35 pm 20:35 Sunny 72 22.2 54 12.4 54 54 W 8 13 29.79 1009 10 16.0934 0 0
8:55 pm 20:55 Sunny 70 21.1 55 12.7 59 59 W 5 7 29.8 1009 10 16.0934 0 0
9:15 pm 21:15 Clear 68 20.2 57 13.7 66 66 W 3 6 29.8 1009 10 16.0934 0 0
9:35 pm 21:35 Clear 64 17.6 60 15.6 88 88 W 3 6 29.81 1009 10 16.0934 0 0
9:55 pm 21:55 Clear 64 17.7 60 15.3 86 86 Calm 29.81 1009 10 16.0934 0 0
10:15 pm 22:15 Clear 62 16.6 59 15.2 92 92 Calm 29.82 1010 10 16.0934 0 0
10:35 pm 22:35 Clear 61 16.2 60 15.4 95 95 Calm 29.82 1010 10 16.0934 0 0
10:55 pm 22:55 Clear 61 16.2 59 15 93 93 Calm 29.83 1010 10 16.0934 0 0
11:15 pm 23:15 Clear 60 15.4 59 14.8 96 96 Calm 29.84 1010 10 16.0934 0 0
11:35 pm 23:35 Clear 61 16.2 59 15.1 93 93 Calm 29.83 1010 10 16.0934 0 0
11:55 pm 23:55 Clear 60 15.3 58 14.2 93 93 Calm 29.84 1010 10 16.0934 0 0

Powered by AerisWeather